Flag for Grenada Weather past 2 weeks in Saint George's, Grenada

Now
82 °F

Passing clouds.


Feels Like: 85 °F
Forecast: 74 / 80 °F
Wind: 16 mph from Southeast

Location: Point Salines Airport

Current Time: Mar 31, 2015 at 9:14:15 AM

Latest Report: Mar 31, 2015 at 8:00 AM


Visibility: N/A

Pressure: 30.01 "Hg

Humidity: 62%

Dew point: 68 °F

Location of Saint George'sLocation

Historic Weather in Saint George's — Graph

°F

Saint George's temperature yesterday

Maximum temperature yesterday: 84 °F (at 10:00 AM)
Minimum temperature yesterday: 73 °F (at 5:00 AM)
Average temperature yesterday: 80 °F

Past Weeks' High & Low Weather Summary

 TemperatureHumidityPressure
High88 °F (Mar 18, 1:00 PM)100% (Mar 19, 12:00 PM)30.07 "Hg (Mar 19, 12:00 PM)
Low73 °F (Mar 21, 5:00 AM)59% (Mar 27, 12:00 PM)29.86 "Hg (Mar 16, 3:00 PM)
Average80 °F79%29.96 "Hg
* Reported Mar 16 8:00 AM — Mar 31 8:00 AM, Saint George's, Weather by CustomWeather, © 2015

Note: Actual official high and low records may vary slightly from our data, if they occured in-between our weather recording intervals... More about our weather records

Advertising

Saint George's weather history for previous 24 hours

 ConditionsComfort  
Time TempWeatherWind HumidityBarometerVisibility
8:00 AM
Tue, Mar 31
82 °FPassing clouds.16 mph62%30.01 "HgN/A
6:00 AM77 °FPassing clouds.12 mph74%29.95 "HgN/A
5:00 AM79 °FPassing clouds.12 mph70%29.95 "HgN/A
4:00 AM77 °FPassing clouds.9 mph79%29.92 "HgN/A
3:00 AM79 °FPassing clouds.12 mph74%29.95 "HgN/A
2:00 AM79 °FPassing clouds.14 mph70%29.95 "HgN/A
12:00 AM79 °FPassing clouds.12 mph70%29.98 "HgN/A
11:00 PM
Mon, Mar 30
79 °FPassing clouds.18 mph70%29.98 "HgN/A
10:00 PM79 °FPassing clouds.17 mph70%29.98 "HgN/A
9:00 PM79 °FPassing clouds.14 mph70%29.95 "HgN/A
8:00 PM79 °FPassing clouds.15 mph65%29.95 "HgN/A
7:00 PM79 °FPassing clouds.12 mph70%29.95 "HgN/A
6:00 PM81 °FPassing clouds.12 mph66%29.92 "HgN/A
5:00 PM82 °FPassing clouds.21 mph62%29.92 "HgN/A
4:00 PM82 °FScattered clouds.17 mph66%29.92 "HgN/A
3:00 PM84 °FScattered clouds.21 mph62%29.92 "HgN/A
2:00 PM84 °FPassing clouds.18 mph62%29.95 "HgN/A
1:00 PM84 °FScattered clouds.18 mph66%29.98 "HgN/A
12:00 PM84 °FScattered clouds.21 mph62%30.01 "HgN/A
11:00 AM82 °FScattered clouds.21 mph66%30.01 "HgN/A
10:00 AM84 °FPartly sunny.16 mph70%30.01 "HgN/A
9:00 AM82 °FPartly sunny.12 mph74%30.01 "HgN/A
Weather by CustomWeather, © 2015

See weather overviewHow to use our weather pages